Voltar ao catálogo

FENGYUN 1C DEB

AtivoSSO
NORAD 30741·DEBRIS·🇨🇳 China

Lançado May 10, 1999 de Taiyuan Satellite Launch Center

Loading…

Próximas Passagens (próximas 24 horas)

TLE

AtualizadoSource: Space-Track

Época: Sep 14, 2026, 12:16 UTC

1 30741U 99025ATB 26257.51134867  .00000118  00000-0  85586-4 0  9993
2 30741  98.6787 263.5115 0007171  60.2445  93.0435 14.13376964  7007

Acompanhe FENGYUN 1C DEB em tempo real com AllMySat

Download on the App Store